STARLINK-30044 (55703 NORAD) Tracking and Keplerian Element Data

This shows tracking and keplerian element data for the satellite.

Feedback or suggestion? Click here.




ElementValue
Catalog55703
NameSTARLINK-30044
Epoch Orbit130
Epoch Day62.91667824
Epoch Year2023
RAAN259.6154
Inclination43.0102
Eccentricity0.0001635
Argument of Perigee281.7778
Mean Anonmoly178.4043
Mean Motion15.65462286
Decay Rate-0.00796239
L11 55703U 23026J 23062.91667824 -.00796239 00000+0 -85192-2 0 9993
L22 55703 43.0102 259.6154 0001635 281.7778 178.4043 15.65462286 1305



Live tracking and technical data element details for STARLINK-30044 (NORAD 55703). STARLINK-30044 can be tracked NOW for your location showing map with azimuth and elevation plus other details from your city location.







IsCatalogInMostPopularTable: catalog: 55703, numindb: 1
Update: records affected: 1



GetName: 55703 STARLINK-30044

Hit Count: updated at: Wed, 22 Mar 2023 15:40:41 GMT